| time (UTC) | temp F | wind direction | speed knots | gust knots | rain 1hr in | rain 24hr in | rain mn in | humidity % | barometer mb |
| 20260904040432 | 66 | 175 | 0.0 | 0.0 | 0.00 | 0.00 | 0.00 | 75 | |
| 20260904040230 | 66 | 175 | 0.0 | 0.0 | 0.00 | 0.00 | 0.00 | 76 | |
| 20260904040028 | 66 | 175 | 0.0 | 0.0 | 0.00 | 0.00 | 0.00 | 75 | |
| 20260904035826 | 66 | 175 | 0.0 | 0.0 | 0.00 | 0.00 | 0.00 | 75 | |
| 20260904035624 | 66 | 175 | 0.0 | 0.0 | 0.00 | 0.00 | 0.00 | 75 | |
| 20260904035422 | 66 | 175 | 0.0 | 0.0 | 0.00 | 0.00 | 0.00 | 75 | |
| 20260904035221 | 66 | 175 | 0.0 | 0.0 | 0.00 | 0.00 | 0.00 | 75 | |
| 20260904035019 | 66 | 175 | 0.0 | 0.0 | 0.00 | 0.00 | 0.00 | 75 | |
| 20260904034615 | 66 | 175 | 0.0 | 0.0 | 0.00 | 0.00 | 0.00 | 74 | |
| 20260904034413 | 66 | 175 | 0.0 | 0.0 | 0.00 | 0.00 | 0.00 | 74 | |
| 20260904033807 | 67 | 175 | 0.0 | 0.0 | 0.00 | 0.00 | 0.00 | 73 | |
| 20260904033605 | 67 | 175 | 0.0 | 0.0 | 0.00 | 0.00 | 0.00 | 73 | |
| 20260904033403 | 67 | 175 | 0.0 | 0.0 | 0.00 | 0.00 | 0.00 | 73 | |
| 20260904033000 | 67 | 175 | 0.0 | 0.0 | 0.00 | 0.00 | 0.00 | 73 | |
| 20260904032758 | 67 | 175 | 0.0 | 0.0 | 0.00 | 0.00 | 0.00 | 72 | |
| 20260904032354 | 67 | 175 | 0.0 | 0.9 | 0.00 | 0.00 | 0.00 | 72 | |
| 20260904032152 | 67 | 274 | 0.0 | 0.0 | 0.00 | 0.00 | 0.00 | 72 | |
| 20260904031950 | 67 | 274 | 0.0 | 0.0 | 0.00 | 0.00 | 0.00 | 71 | |
| 20260904031748 | 68 | 274 | 0.0 | 0.0 | 0.00 | 0.00 | 0.00 | 71 | |
| 20260904031546 | 68 | 274 | 0.0 | 0.0 | 0.00 | 0.00 | 0.00 | 71 | |
| 20260904031344 | 68 | 274 | 0.0 | 0.0 | 0.00 | 0.00 | 0.00 | 71 | |
| 20260904031142 | 68 | 274 | 0.0 | 0.0 | 0.00 | 0.00 | 0.00 | 71 | |
| 20260904030941 | 68 | 274 | 0.0 | 0.0 | 0.00 | 0.00 | 0.00 | 71 | |
| 20260904030739 | 68 | 274 | 0.0 | 2.6 | 0.00 | 0.00 | 0.00 | 71 | |
| 20260904030537 | 68 | 274 | 0.0 | 2.6 | 0.00 | 0.00 | 0.00 | 71 | |
| 20260904030335 | 68 | 274 | 0.0 | 2.6 | 0.00 | 0.00 | 0.00 | 71 | |
| 20260904030133 | 68 | 274 | 0.0 | 4.3 | 0.00 | 0.00 | 0.00 | 70 | |
| 20260904025931 | 68 | 285 | 0.9 | 4.3 | 0.00 | 0.00 | 0.00 | 70 | |
| 20260904025729 | 68 | 278 | 0.0 | 5.2 | 0.00 | 0.00 | 0.00 | 71 | |
| 20260904025527 | 68 | 285 | 2.6 | 5.2 | 0.00 | 0.00 | 0.00 | 71 | |
| 20260904025325 | 68 | 282 | 0.9 | 5.2 | 0.00 | 0.00 | 0.00 | 70 | |
| 20260904025123 | 68 | 277 | 1.7 | 6.1 | 0.00 | 0.00 | 0.00 | 70 | |
| 20260904024922 | 68 | 286 | 3.5 | 6.1 | 0.00 | 0.00 | 0.00 | 70 | |
| 20260904024720 | 69 | 289 | 1.7 | 3.5 | 0.00 | 0.00 | 0.00 | 69 | |
| 20260904024518 | 69 | 285 | 1.7 | 3.5 | 0.00 | 0.00 | 0.00 | 69 | |
| 20260904024316 | 69 | 285 | 4.3 | 3.5 | 0.00 | 0.00 | 0.00 | 69 | |
| 20260904024114 | 69 | 279 | 1.7 | 5.2 | 0.00 | 0.00 | 0.00 | 69 | |
| 20260904023912 | 69 | 268 | 1.7 | 5.2 | 0.00 | 0.00 | 0.00 | 68 | |
| 20260904023710 | 69 | 271 | 1.7 | 7.0 | 0.00 | 0.00 | 0.00 | 68 | |
| 20260904023508 | 69 | 257 | 3.5 | 7.0 | 0.00 | 0.00 | 0.00 | 68 | |
| 20260904023308 | 69 | 251 | 0.0 | 7.0 | 0.00 | 0.00 | 0.00 | 67 | |
| 20260904023104 | 69 | 274 | 0.0 | 5.2 | 0.00 | 0.00 | 0.00 | 68 | |
| 20260904022902 | 69 | 282 | 4.3 | 5.2 | 0.00 | 0.00 | 0.00 | 67 | |
| 20260904022700 | 69 | 288 | 1.7 | 6.1 | 0.00 | 0.00 | 0.00 | 66 | |
| 20260904022458 | 70 | 265 | 0.9 | 6.1 | 0.00 | 0.00 | 0.00 | 67 | |
| 20260904022256 | 70 | 293 | 1.7 | 6.1 | 0.00 | 0.00 | 0.00 | 66 | |
| 20260904022054 | 70 | 285 | 2.6 | 7.0 | 0.00 | 0.00 | 0.00 | 66 | |
| 20260904021852 | 70 | 272 | 4.3 | 7.0 | 0.00 | 0.00 | 0.00 | 66 | |
| 20260904021650 | 70 | 274 | 5.2 | 6.1 | 0.00 | 0.00 | 0.00 | 65 | |
| 20260904021448 | 71 | 295 | 3.5 | 6.1 | 0.00 | 0.00 | 0.00 | 64 | |
| 20260904021246 | 71 | 277 | 2.6 | 6.1 | 0.00 | 0.00 | 0.00 | 64 | |
| 20260904021045 | 71 | 289 | 0.9 | 7.0 | 0.00 | 0.00 | 0.00 | 63 | |
| 20260904020843 | 70 | 264 | 3.5 | 7.0 | 0.00 | 0.00 | 0.00 | 63 | |
| 20260904020641 | 71 | 295 | 3.5 | 7.8 | 0.00 | 0.00 | 0.00 | 63 | |
| 20260904020439 | 71 | 278 | 6.1 | 7.8 | 0.00 | 0.00 | 0.00 | 63 | |
| 20260904020237 | 71 | 278 | 6.1 | 8.7 | 0.00 | 0.00 | 0.00 | 63 | |
| 20260904020036 | 71 | 267 | 7.0 | 8.7 | 0.00 | 0.00 | 0.00 | 62 | |
| 20260904015833 | 71 | 270 | 7.0 | 8.7 | 0.00 | 0.00 | 0.00 | 62 | |
| 20260904015632 | 72 | 261 | 7.0 | 7.0 | 0.00 | 0.00 | 0.00 | 61 | |
| 20260904015429 | 72 | 278 | 5.2 | 7.0 | 0.00 | 0.00 | 0.00 | 60 | |
| 20260904015227 | 72 | 265 | 2.6 | 8.7 | 0.00 | 0.00 | 0.00 | 60 | |
| 20260904015027 | 72 | 268 | 5.2 | 8.7 | 0.00 | 0.00 | 0.00 | 60 | |
| 20260904014825 | 72 | 272 | 3.5 | 8.7 | 0.00 | 0.00 | 0.00 | 60 | |
| 20260904014623 | 72 | 278 | 4.3 | 12.2 | 0.00 | 0.00 | 0.00 | 60 | |
| 20260904014419 | 72 | 279 | 7.0 | 12.2 | 0.00 | 0.00 | 0.00 | 60 | |
| 20260904014219 | 72 | 272 | 7.0 | 11.3 | 0.00 | 0.00 | 0.00 | 59 | |
| 20260904014015 | 72 | 258 | 9.6 | 11.3 | 0.00 | 0.00 | 0.00 | 59 | |
| 20260904013815 | 72 | 265 | 7.8 | 11.3 | 0.00 | 0.00 | 0.00 | 59 | |
| 20260904013613 | 73 | 270 | 5.2 | 8.7 | 0.00 | 0.00 | 0.00 | 59 | |
| 20260904013409 | 73 | 254 | 7.8 | 8.7 | 0.00 | 0.00 | 0.00 | 58 | |
| 20260904013209 | 73 | 260 | 8.7 | 10.4 | 0.00 | 0.00 | 0.00 | 58 | |
| 20260904013007 | 73 | 271 | 7.8 | 10.4 | 0.00 | 0.00 | 0.00 | 58 | |
| 20260904012803 | 73 | 253 | 5.2 | 10.4 | 0.00 | 0.00 | 0.00 | 58 | |
| 20260904012601 | 73 | 258 | 10.4 | 11.3 | 0.00 | 0.00 | 0.00 | 57 | |
| 20260904012401 | 73 | 268 | 6.1 | 11.3 | 0.00 | 0.00 | 0.00 | 58 | |
| 20260904012159 | 73 | 270 | 9.6 | 13.0 | 0.00 | 0.00 | 0.00 | 58 | |
| 20260904011956 | 73 | 267 | 7.8 | 13.0 | 0.00 | 0.00 | 0.00 | 58 | |
| 20260904011755 | 73 | 264 | 4.3 | 13.0 | 0.00 | 0.00 | 0.00 | 58 | |
| 20260904011552 | 73 | 268 | 8.7 | 12.2 | 0.00 | 0.00 | 0.00 | 58 | |
| 20260904011350 | 73 | 296 | 4.3 | 12.2 | 0.00 | 0.00 | 0.00 | 58 | |
| 20260904010341 | 74 | 277 | 8.7 | 13.0 | 0.00 | 0.00 | 0.00 | 57 | |
| 20260904010138 | 74 | 258 | 11.3 | 12.2 | 0.00 | 0.00 | 0.00 | 57 | |
| 20260904005936 | 74 | 261 | 4.3 | 12.2 | 0.00 | 0.00 | 0.00 | 57 | |
| 20260904005734 | 74 | 285 | 5.2 | 11.3 | 0.00 | 0.00 | 0.00 | 58 | |
| 20260904005532 | 74 | 272 | 7.8 | 11.3 | 0.00 | 0.00 | 0.00 | 58 | |
| 20260904005330 | 74 | 260 | 11.3 | 11.3 | 0.00 | 0.00 | 0.00 | 58 | |
| 20260904005130 | 74 | 265 | 6.1 | 12.2 | 0.00 | 0.00 | 0.00 | 58 | |
| 20260904004928 | 74 | 268 | 8.7 | 12.2 | 0.00 | 0.00 | 0.00 | 57 | |
| 20260904004726 | 75 | 277 | 7.8 | 11.3 | 0.00 | 0.00 | 0.00 | 57 | |
| 20260904004522 | 75 | 251 | 7.0 | 11.3 | 0.00 | 0.00 | 0.00 | 57 | |
| 20260904004322 | 75 | 274 | 4.3 | 11.3 | 0.00 | 0.00 | 0.00 | 57 | |
| 20260904004118 | 75 | 255 | 9.6 | 13.0 | 0.00 | 0.00 | 0.00 | 56 | |
| 20260904003918 | 75 | 251 | 2.6 | 13.0 | 0.00 | 0.00 | 0.00 | 57 | |
| 20260904003716 | 74 | 261 | 11.3 | 13.0 | 0.00 | 0.00 | 0.00 | 56 | |
| 20260904003514 | 75 | 262 | 8.7 | 13.0 | 0.00 | 0.00 | 0.00 | 56 | |
| 20260904003311 | 75 | 253 | 7.0 | 13.0 | 0.00 | 0.00 | 0.00 | 56 | |
| 20260904003109 | 75 | 264 | 12.2 | 10.4 | 0.00 | 0.00 | 0.00 | 55 | |
| 20260904002907 | 75 | 278 | 6.1 | 10.4 | 0.00 | 0.00 | 0.00 | 55 | |
| 20260904002503 | 75 | 258 | 8.7 | 11.3 | 0.00 | 0.00 | 0.00 | 55 | |
| 20260904002306 | 75 | 255 | 7.0 | 11.3 | 0.00 | 0.00 | 0.00 | 55 | |
| 20260904002059 | 75 | 262 | 5.2 | 13.0 | 0.00 | 0.00 | 0.00 | 55 | |
| 20260904001857 | 75 | 261 | 9.6 | 13.0 | 0.00 | 0.00 | 0.00 | 56 | |
| 20260904001655 | 74 | 268 | 6.1 | 10.4 | 0.00 | 0.00 | 0.00 | 56 | |
| 20260904001453 | 75 | 260 | 7.8 | 10.4 | 0.00 | 0.00 | 0.00 | 56 | |
| 20260904001253 | 75 | 255 | 2.6 | 10.4 | 0.00 | 0.00 | 0.00 | 56 | |
| 20260904001049 | 75 | 272 | 7.0 | 12.2 | 0.00 | 0.00 | 0.00 | 56 | |
| 20260904000443 | 75 | 246 | 9.6 | 12.2 | 0.00 | 0.00 | 0.00 | 56 | |
| 20260904000241 | 75 | 265 | 10.4 | 13.9 | 0.00 | 0.00 | 0.00 | 56 | |
| 20260904000039 | 75 | 270 | 9.6 | 13.9 | 0.00 | 0.00 | 0.00 | 55 | |
| 20260903235837 | 76 | 285 | 6.1 | 13.9 | 0.00 | 0.00 | 0.00 | 54 | |
| 20260903235433 | 75 | 261 | 6.1 | 13.0 | 0.00 | 0.00 | 0.00 | 55 | |
| 20260903235231 | 75 | 251 | 7.0 | 13.9 | 0.00 | 0.00 | 0.00 | 55 | |
| 20260903235029 | 75 | 309 | 5.2 | 13.9 | 0.00 | 0.00 | 0.00 | 56 | |
| 20260903234827 | 75 | 255 | 11.3 | 13.9 | 0.00 | 0.00 | 0.00 | 55 | |
| 20260903234423 | 75 | 271 | 10.4 | 15.6 | 0.00 | 0.00 | 0.00 | 56 | |
| 20260903234224 | 75 | 251 | 11.3 | 14.8 | 0.00 | 0.00 | 0.00 | 55 | |
| 20260903234020 | 75 | 262 | 13.9 | 14.8 | 0.00 | 0.00 | 0.00 | 55 | |
| 20260903233616 | 75 | 257 | 12.2 | 14.8 | 0.00 | 0.00 | 0.00 | 53 | |
| 20260903233414 | 76 | 92 | 3.5 | 14.8 | 0.00 | 0.00 | 0.00 | 55 | |
| 20260903233212 | 75 | 255 | 7.0 | 14.8 | 0.00 | 0.00 | 0.00 | 56 | |
| 20260903232606 | 76 | 262 | 9.6 | 14.8 | 0.00 | 0.00 | 0.00 | 54 | |
| 20260903232404 | 76 | 262 | 11.3 | 14.8 | 0.00 | 0.00 | 0.00 | 54 | |
| 20260903231800 | 76 | 260 | 12.2 | 13.9 | 0.00 | 0.00 | 0.00 | 52 | |
| 20260903231558 | 76 | 248 | 8.7 | 13.0 | 0.00 | 0.00 | 0.00 | 53 | |
| 20260903231356 | 76 | 226 | 6.1 | 13.0 | 0.00 | 0.00 | 0.00 | 54 | |
| 20260903231154 | 76 | 275 | 8.7 | 13.9 | 0.00 | 0.00 | 0.00 | 55 | |
| 20260903230952 | 76 | 237 | 6.1 | 13.9 | 0.00 | 0.00 | 0.00 | 55 | |
| 20260903230750 | 76 | 246 | 10.4 | 13.9 | 0.00 | 0.00 | 0.00 | 53 | |
| 20260903230345 | 76 | 254 | 10.4 | 14.8 | 0.00 | 0.00 | 0.00 | 54 | |
| 20260903225942 | 77 | 261 | 7.0 | 14.8 | 0.00 | 0.00 | 0.00 | 52 | |
| 20260903225538 | 76 | 251 | 8.7 | 14.8 | 0.00 | 0.00 | 0.00 | 54 | |
| 20260903225337 | 76 | 247 | 8.7 | 14.8 | 0.00 | 0.00 | 0.00 | 55 | |
| 20260903225135 | 76 | 265 | 6.1 | 13.9 | 0.00 | 0.00 | 0.00 | 55 | |
| 20260903224931 | 77 | 270 | 11.3 | 13.9 | 0.00 | 0.00 | 0.00 | 55 | |
| 20260903224731 | 76 | 264 | 6.1 | 17.4 | 0.00 | 0.00 | 0.00 | 55 | |
| 20260903224529 | 77 | 277 | 10.4 | 17.4 | 0.00 | 0.00 | 0.00 | 55 | |
| 20260903224327 | 76 | 250 | 8.7 | 17.4 | 0.00 | 0.00 | 0.00 | 55 | |
| 20260903224125 | 77 | 262 | 13.0 | 15.6 | 0.00 | 0.00 | 0.00 | 54 | |
| 20260903223923 | 77 | 255 | 9.6 | 15.6 | 0.00 | 0.00 | 0.00 | 54 | |
| 20260903223721 | 77 | 268 | 8.7 | 14.8 | 0.00 | 0.00 | 0.00 | 54 | |
| 20260903223519 | 78 | 255 | 10.4 | 14.8 | 0.00 | 0.00 | 0.00 | 54 | |
| 20260903223316 | 78 | 250 | 9.6 | 14.8 | 0.00 | 0.00 | 0.00 | 54 | |
| 20260903223115 | 77 | 244 | 5.2 | 13.9 | 0.00 | 0.00 | 0.00 | 55 | |
| 20260903222911 | 77 | 270 | 8.7 | 13.9 | 0.00 | 0.00 | 0.00 | 56 | |
| 20260903222709 | 77 | 272 | 9.6 | 16.5 | 0.00 | 0.00 | 0.00 | 57 | |
| 20260903222508 | 76 | 253 | 7.8 | 16.5 | 0.00 | 0.00 | 0.00 | 57 | |
| 20260903222308 | 76 | 262 | 7.8 | 16.5 | 0.00 | 0.00 | 0.00 | 57 | |
| 20260903222105 | 77 | 265 | 5.2 | 13.9 | 0.00 | 0.00 | 0.00 | 57 | |
| 20260903221902 | 76 | 264 | 7.8 | 13.9 | 0.00 | 0.00 | 0.00 | 57 | |
| 20260903221701 | 76 | 274 | 9.6 | 13.9 | 0.00 | 0.00 | 0.00 | 57 | |
| 20260903221459 | 77 | 250 | 7.8 | 13.9 | 0.00 | 0.00 | 0.00 | 57 | |
| 20260903221257 | 77 | 254 | 7.8 | 13.9 | 0.00 | 0.00 | 0.00 | 56 | |
| 20260903221055 | 77 | 278 | 8.7 | 13.9 | 0.00 | 0.00 | 0.00 | 56 | |
| 20260903220854 | 77 | 237 | 10.4 | 13.9 | 0.00 | 0.00 | 0.00 | 56 | |
| 20260903220652 | 77 | 251 | 7.8 | 14.8 | 0.00 | 0.00 | 0.00 | 56 | |
| 20260903220249 | 77 | 270 | 7.0 | 14.8 | 0.00 | 0.00 | 0.00 | 56 | |
| 20260903220046 | 77 | 262 | 7.8 | 13.9 | 0.00 | 0.00 | 0.00 | 57 | |
| 20260903215844 | 77 | 291 | 8.7 | 13.9 | 0.00 | 0.00 | 0.00 | 56 | |
| 20260903215238 | 77 | 261 | 8.7 | 14.8 | 0.00 | 0.00 | 0.00 | 57 | |
| 20260903215036 | 77 | 288 | 8.7 | 14.8 | 0.00 | 0.00 | 0.00 | 57 | |
| 20260903214834 | 77 | 243 | 8.7 | 14.8 | 0.00 | 0.00 | 0.00 | 57 | |
| 20260903214632 | 78 | 267 | 9.6 | 13.9 | 0.00 | 0.00 | 0.00 | 56 | |
| 20260903214431 | 78 | 241 | 3.5 | 13.9 | 0.00 | 0.00 | 0.00 | 57 | |
| 20260903214228 | 77 | 264 | 5.2 | 13.0 | 0.00 | 0.00 | 0.00 | 58 | |
| 20260903214028 | 77 | 264 | 9.6 | 13.0 | 0.00 | 0.00 | 0.00 | 57 | |
| 20260903213825 | 77 | 274 | 3.5 | 13.0 | 0.00 | 0.00 | 0.00 | 57 | |
| 20260903213420 | 77 | 258 | 10.4 | 15.6 | 0.00 | 0.00 | 0.00 | 58 | |
| 20260903213218 | 77 | 272 | 7.8 | 13.0 | 0.00 | 0.00 | 0.00 | 58 | |
| 20260903213015 | 78 | 260 | 9.6 | 13.0 | 0.00 | 0.00 | 0.00 | 57 | |
| 20260903212814 | 78 | 246 | 7.8 | 13.0 | 0.00 | 0.00 | 0.00 | 56 | |
| 20260903212611 | 78 | 293 | 3.5 | 15.6 | 0.00 | 0.00 | 0.00 | 57 | |
| 20260903212411 | 78 | 223 | 7.8 | 15.6 | 0.00 | 0.00 | 0.00 | 57 | |
| 20260903212207 | 78 | 246 | 9.6 | 14.8 | 0.00 | 0.00 | 0.00 | 57 | |
| 20260903211603 | 77 | 261 | 13.9 | 13.9 | 0.00 | 0.00 | 0.00 | 58 | |
| 20260903211401 | 77 | 246 | 5.2 | 13.9 | 0.00 | 0.00 | 0.00 | 58 | |
| 20260903211159 | 78 | 253 | 12.2 | 15.6 | 0.00 | 0.00 | 0.00 | 56 | |
| 20260903210553 | 78 | 246 | 7.0 | 14.8 | 0.00 | 0.00 | 0.00 | 57 | |
| 20260903210350 | 78 | 281 | 9.6 | 14.8 | 0.00 | 0.00 | 0.00 | 56 | |
| 20260903210149 | 78 | 274 | 6.1 | 14.8 | 0.00 | 0.00 | 0.00 | 56 | |
| 20260903205945 | 78 | 275 | 7.8 | 14.8 | 0.00 | 0.00 | 0.00 | 56 | |
| 20260903205745 | 78 | 254 | 8.7 | 15.6 | 0.00 | 0.00 | 0.00 | 56 | |
| 20260903204936 | 77 | 278 | 6.1 | 20.0 | 0.00 | 0.00 | 0.00 | 57 | |
| 20260903204735 | 78 | 254 | 13.9 | 12.2 | 0.00 | 0.00 | 0.00 | 56 | |
| 20260903204534 | 79 | 279 | 10.4 | 12.2 | 0.00 | 0.00 | 0.00 | 55 | |
| 20260903204331 | 79 | 261 | 6.1 | 12.2 | 0.00 | 0.00 | 0.00 | 54 | |
| 20260903204130 | 79 | 255 | 3.5 | 14.8 | 0.00 | 0.00 | 0.00 | 55 | |
| 20260903203927 | 79 | 264 | 7.8 | 14.8 | 0.00 | 0.00 | 0.00 | 55 | |
| 20260903203724 | 78 | 265 | 8.7 | 13.9 | 0.00 | 0.00 | 0.00 | 55 | |
| 20260903203320 | 80 | 225 | 8.7 | 13.9 | 0.00 | 0.00 | 0.00 | 53 | |
| 20260903203120 | 80 | 234 | 7.0 | 14.8 | 0.00 | 0.00 | 0.00 | 53 | |
| 20260903202918 | 80 | 234 | 8.7 | 14.8 | 0.00 | 0.00 | 0.00 | 53 | |
| 20260903202716 | 80 | 268 | 7.0 | 14.8 | 0.00 | 0.00 | 0.00 | 52 | |
| 20260903202514 | 80 | 277 | 1.7 | 14.8 | 0.00 | 0.00 | 0.00 | 52 | |
| 20260903202312 | 80 | 261 | 4.3 | 14.8 | 0.00 | 0.00 | 0.00 | 52 | |
| 20260903202110 | 80 | 274 | 4.3 | 12.2 | 0.00 | 0.00 | 0.00 | 52 | |
| 20260903201908 | 80 | 244 | 13.0 | 12.2 | 0.00 | 0.00 | 0.00 | 51 | |
| 20260903201706 | 81 | 271 | 3.5 | 12.2 | 0.00 | 0.00 | 0.00 | 50 | |
| 20260903201504 | 81 | 243 | 4.3 | 12.2 | 0.00 | 0.00 | 0.00 | 50 | |
| 20260903201302 | 80 | 248 | 4.3 | 12.2 | 0.00 | 0.00 | 0.00 | 51 | |
| 20260903201058 | 80 | 257 | 6.1 | 12.2 | 0.00 | 0.00 | 0.00 | 52 | |
| 20260903200858 | 80 | 255 | 6.1 | 12.2 | 0.00 | 0.00 | 0.00 | 52 | |
| 20260903200656 | 80 | 264 | 9.6 | 13.0 | 0.00 | 0.00 | 0.00 | 51 | |
| 20260903200454 | 80 | 250 | 8.7 | 13.0 | 0.00 | 0.00 | 0.00 | 50 | |
| 20260903200252 | 80 | 296 | 7.0 | 13.0 | 0.00 | 0.00 | 0.00 | 50 | |
| 20260903195849 | 80 | 240 | 7.0 | 10.4 | 0.00 | 0.00 | 0.00 | 49 | |
| 20260903195646 | 80 | 247 | 7.0 | 10.4 | 0.00 | 0.00 | 0.00 | 50 | |
| 20260903195444 | 80 | 236 | 5.2 | 10.4 | 0.00 | 0.00 | 0.00 | 51 | |
| 20260903195241 | 80 | 264 | 7.8 | 13.9 | 0.00 | 0.00 | 0.00 | 50 | |
| 20260903195040 | 80 | 237 | 3.5 | 13.9 | 0.00 | 0.00 | 0.00 | 50 | |
| 20260903194837 | 80 | 265 | 7.0 | 13.9 | 0.00 | 0.00 | 0.00 | 50 | |
| 20260903194636 | 80 | 265 | 13.0 | 11.3 | 0.00 | 0.00 | 0.00 | 50 | |
| 20260903194231 | 80 | 241 | 7.8 | 12.2 | 0.00 | 0.00 | 0.00 | 49 | |
| 20260903194030 | 80 | 265 | 1.7 | 12.2 | 0.00 | 0.00 | 0.00 | 50 | |
| 20260903193628 | 80 | 270 | 10.4 | 13.0 | 0.00 | 0.00 | 0.00 | 49 | |
| 20260903193425 | 80 | 272 | 7.0 | 13.0 | 0.00 | 0.00 | 0.00 | 49 | |
| 20260903193019 | 80 | 254 | 11.3 | 12.2 | 0.00 | 0.00 | 0.00 | 49 | |
| 20260903192819 | 80 | 254 | 13.0 | 12.2 | 0.00 | 0.00 | 0.00 | 49 | |
| 20260903192615 | 80 | 250 | 7.8 | 13.0 | 0.00 | 0.00 | 0.00 | 49 | |
| 20260903192415 | 80 | 243 | 10.4 | 13.0 | 0.00 | 0.00 | 0.00 | 48 | |
| 20260903192213 | 80 | 239 | 7.8 | 13.0 | 0.00 | 0.00 | 0.00 | 48 | |
| 20260903192011 | 80 | 260 | 6.1 | 13.0 | 0.00 | 0.00 | 0.00 | 48 | |
| 20260903191807 | 80 | 288 | 2.6 | 13.0 | 0.00 | 0.00 | 0.00 | 47 | |
| 20260903191607 | 81 | 264 | 11.3 | 8.7 | 0.00 | 0.00 | 0.00 | 46 | |
| 20260903191405 | 82 | 278 | 7.0 | 8.7 | 0.00 | 0.00 | 0.00 | 45 | |
| 20260903191203 | 83 | 306 | 3.5 | 7.0 | 0.00 | 0.00 | 0.00 | 44 | |
| 20260903191001 | 83 | 258 | 1.7 | 7.0 | 0.00 | 0.00 | 0.00 | 44 | |
| 20260903190557 | 83 | 227 | 1.7 | 5.2 | 0.00 | 0.00 | 0.00 | 44 | |
| 20260903190356 | 83 | 281 | 6.1 | 5.2 | 0.00 | 0.00 | 0.00 | 44 | |
| 20260903190153 | 83 | 119 | 0.9 | 7.0 | 0.00 | 0.00 | 0.00 | 44 | |
| 20260903185951 | 83 | 94 | 3.5 | 7.0 | 0.00 | 0.00 | 0.00 | 44 | |
| 20260903185346 | 83 | 143 | 0.0 | 7.0 | 0.00 | 0.00 | 0.00 | 44 | |
| 20260903185144 | 83 | 104 | 3.5 | 5.2 | 0.00 | 0.00 | 0.00 | 43 | |
| 20260903184942 | 82 | 140 | 2.6 | 5.2 | 0.00 | 0.00 | 0.00 | 44 | |
| 20260903184738 | 83 | 144 | 2.6 | 4.3 | 0.00 | 0.00 | 0.00 | 44 | |
| 20260903184537 | 82 | 82 | 0.0 | 4.3 | 0.00 | 0.00 | 0.00 | 44 | |
| 20260903184336 | 82 | 160 | 0.9 | 4.3 | 0.00 | 0.00 | 0.00 | 44 | |
| 20260903184134 | 82 | 188 | 2.6 | 5.2 | 0.00 | 0.00 | 0.00 | 44 | |
| 20260903183932 | 82 | 11 | 1.7 | 5.2 | 0.00 | 0.00 | 0.00 | 45 | |
| 20260903183729 | 81 | 39 | 0.0 | 5.2 | 0.00 | 0.00 | 0.00 | 46 | |
| 20260903183528 | 81 | 336 | 0.9 | 5.2 | 0.00 | 0.00 | 0.00 | 46 | |
| 20260903183325 | 81 | 137 | 1.7 | 5.2 | 0.00 | 0.00 | 0.00 | 46 | |
| 20260903183124 | 80 | 122 | 0.9 | 4.3 | 0.00 | 0.00 | 0.00 | 46 | |
| 20260903182921 | 81 | 203 | 4.3 | 4.3 | 0.00 | 0.00 | 0.00 | 46 | |
| 20260903182718 | 81 | 168 | 1.7 | 7.8 | 0.00 | 0.00 | 0.00 | 46 | |
| 20260903182316 | 80 | 317 | 1.7 | 7.8 | 0.00 | 0.00 | 0.00 | 46 | |
| 20260903182114 | 80 | 229 | 3.5 | 7.0 | 0.00 | 0.00 | 0.00 | 47 | |
| 20260903181912 | 80 | 202 | 2.6 | 7.0 | 0.00 | 0.00 | 0.00 | 48 | |
| 20260903181710 | 80 | 102 | 0.0 | 7.0 | 0.00 | 0.00 | 0.00 | 48 | |
| 20260903181508 | 80 | 136 | 0.9 | 7.0 | 0.00 | 0.00 | 0.00 | 47 | |
| 20260903181306 | 80 | 92 | 3.5 | 7.0 | 0.00 | 0.00 | 0.00 | 47 | |
| 20260903181104 | 80 | 154 | 3.5 | 7.0 | 0.00 | 0.00 | 0.00 | 47 | |
| 20260903180700 | 80 | 130 | 3.5 | 5.2 | 0.00 | 0.00 | 0.00 | 48 | |
| 20260903180458 | 80 | 151 | 5.2 | 5.2 | 0.00 | 0.00 | 0.00 | 48 | |
| 20260903180256 | 80 | 150 | 0.9 | 5.2 | 0.00 | 0.00 | 0.00 | 48 | |
| 20260903180055 | 80 | 118 | 2.6 | 5.2 | 0.00 | 0.00 | 0.00 | 48 | |
| 20260903175853 | 80 | 42 | 0.0 | 5.2 | 0.00 | 0.00 | 0.00 | 48 | |
| 20260903175650 | 80 | 42 | 0.0 | 5.2 | 0.00 | 0.00 | 0.00 | 48 | |
| 20260903175448 | 80 | 88 | 2.6 | 5.2 | 0.00 | 0.00 | 0.00 | 48 | |
| 20260903175247 | 79 | 98 | 0.9 | 5.2 | 0.00 | 0.00 | 0.00 | 49 | |
| 20260903175044 | 79 | 116 | 0.0 | 6.1 | 0.00 | 0.00 | 0.00 | 50 | |
| 20260903174842 | 79 | 119 | 2.6 | 6.1 | 0.00 | 0.00 | 0.00 | 49 | |
| 20260903174641 | 79 | 82 | 0.9 | 3.5 | 0.00 | 0.00 | 0.00 | 50 | |
| 20260903174439 | 79 | 66 | 0.9 | 3.5 | 0.00 | 0.00 | 0.00 | 51 | |
| 20260903174236 | 78 | 49 | 0.0 | 0.9 | 0.00 | 0.00 | 0.00 | 52 | |
| 20260903173833 | 77 | 165 | 0.9 | 0.9 | 0.00 | 0.00 | 0.00 | 53 | |
| 20260903173631 | 77 | 1 | 0.0 | 4.3 | 0.00 | 0.00 | 0.00 | 54 | |
| 20260903173427 | 77 | 274 | 0.0 | 4.3 | 0.00 | 0.00 | 0.00 | 55 | |
| 20260903173227 | 77 | 274 | 0.0 | 7.8 | 0.00 | 0.00 | 0.00 | 54 | |
| 20260903173024 | 78 | 286 | 3.5 | 7.8 | 0.00 | 0.00 | 0.00 | 52 | |
| 20260903172821 | 78 | 36 | 0.0 | 7.8 | 0.00 | 0.00 | 0.00 | 53 | |
| 20260903172621 | 78 | 68 | 0.9 | 5.2 | 0.00 | 0.00 | 0.00 | 53 | |
| 20260903172419 | 77 | 116 | 2.6 | 5.2 | 0.00 | 0.00 | 0.00 | 54 | |
| 20260903172215 | 77 | 97 | 1.7 | 3.5 | 0.00 | 0.00 | 0.00 | 54 | |
| 20260903172015 | 77 | 91 | 2.6 | 3.5 | 0.00 | 0.00 | 0.00 | 54 | |
| 20260903171813 | 77 | 43 | 0.0 | 3.5 | 0.00 | 0.00 | 0.00 | 54 | |
| 20260903171610 | 77 | 355 | 0.0 | 5.2 | 0.00 | 0.00 | 0.00 | 54 | |
| 20260903171409 | 77 | 167 | 0.0 | 5.2 | 0.00 | 0.00 | 0.00 | 54 | |
| 20260903170804 | 77 | 37 | 0.9 | 2.6 | 0.00 | 0.00 | 0.00 | 54 | |
| 20260903170601 | 77 | 181 | 1.7 | 1.7 | 0.00 | 0.00 | 0.00 | 54 | |
| 20260903170358 | 76 | 185 | 1.7 | 1.7 | 0.00 | 0.00 | 0.00 | 56 | |
| 20260903170157 | 76 | 54 | 0.0 | 4.3 | 0.00 | 0.00 | 0.00 | 56 | |
| 20260903165953 | 76 | 49 | 0.9 | 4.3 | 0.00 | 0.00 | 0.00 | 57 | |
| 20260903165753 | 76 | 175 | 0.9 | 4.3 | 0.00 | 0.00 | 0.00 | 56 | |
| 20260903165552 | 75 | 66 | 0.0 | 6.1 | 0.00 | 0.00 | 0.00 | 57 | |
| 20260903165349 | 75 | 57 | 0.0 | 6.1 | 0.00 | 0.00 | 0.00 | 58 | |
| 20260903164945 | 75 | 113 | 2.6 | 3.5 | 0.00 | 0.00 | 0.00 | 58 | |
| 20260903164542 | 75 | 26 | 0.0 | 4.3 | 0.00 | 0.00 | 0.00 | 58 | |
| 20260903164340 | 75 | 125 | 3.5 | 4.3 | 0.00 | 0.00 | 0.00 | 57 | |
| 20260903164136 | 75 | 160 | 0.0 | 4.3 | 0.00 | 0.00 | 0.00 | 57 | |
| 20260903163936 | 75 | 94 | 0.0 | 4.3 | 0.00 | 0.00 | 0.00 | 57 | |
| 20260903163734 | 75 | 82 | 1.7 | 4.3 | 0.00 | 0.00 | 0.00 | 58 | |
| 20260903163532 | 74 | 226 | 0.9 | 4.3 | 0.00 | 0.00 | 0.00 | 57 | |
| 20260903163328 | 74 | 75 | 3.5 | 4.3 | 0.00 | 0.00 | 0.00 | 59 | |
| 20260903163128 | 74 | 146 | 0.0 | 7.8 | 0.00 | 0.00 | 0.00 | 59 | |
| 20260903162926 | 74 | 122 | 0.9 | 7.8 | 0.00 | 0.00 | 0.00 | 60 | |
| 20260903162722 | 73 | 111 | 0.0 | 5.2 | 0.00 | 0.00 | 0.00 | 59 | |
| 20260903162522 | 73 | 119 | 2.6 | 5.2 | 0.00 | 0.00 | 0.00 | 59 | |
| 20260903162320 | 73 | 143 | 0.9 | 5.2 | 0.00 | 0.00 | 0.00 | 60 | |
| 20260903162118 | 73 | 153 | 1.7 | 7.0 | 0.00 | 0.00 | 0.00 | 60 | |
| 20260903161916 | 72 | 142 | 1.7 | 7.0 | 0.00 | 0.00 | 0.00 | 61 | |
| 20260903160905 | 72 | 142 | 3.5 | 7.0 | 0.00 | 0.00 | 0.00 | 64 | |
| 20260903160703 | 71 | 106 | 5.2 | 6.1 | 0.00 | 0.00 | 0.00 | 63 | |
| 20260903160503 | 71 | 78 | 0.9 | 6.1 | 0.00 | 0.00 | 0.00 | 64 | |
| 20260903160301 | 72 | 113 | 3.5 | 6.1 | 0.00 | 0.00 | 0.00 | 65 | |
| 20260903160057 | 71 | 133 | 3.5 | 7.0 | 0.00 | 0.00 | 0.00 | 65 | |
| 20260903155855 | 71 | 92 | 4.3 | 7.0 | 0.00 | 0.00 | 0.00 | 65 | |
| 20260903155655 | 71 | 146 | 2.6 | 7.0 | 0.00 | 0.00 | 0.00 | 67 | |
| 20260903155452 | 70 | 168 | 3.5 | 7.0 | 0.00 | 0.00 | 0.00 | 67 | |
| 20260903155249 | 70 | 105 | 3.5 | 7.0 | 0.00 | 0.00 | 0.00 | 67 | |
| 20260903155048 | 70 | 104 | 2.6 | 5.2 | 0.00 | 0.00 | 0.00 | 67 | |
| 20260903154847 | 70 | 109 | 4.3 | 5.2 | 0.00 | 0.00 | 0.00 | 67 | |
| 20260903154441 | 70 | 127 | 1.7 | 5.2 | 0.00 | 0.00 | 0.00 | 67 | |
| 20260903154239 | 69 | 165 | 2.6 | 4.3 | 0.00 | 0.00 | 0.00 | 68 | |
| 20260903154042 | 69 | 156 | 0.9 | 4.3 | 0.00 | 0.00 | 0.00 | 68 | |
| 20260903153835 | 69 | 106 | 2.6 | 4.3 | 0.00 | 0.00 | 0.00 | 69 | |
| 20260903153433 | 68 | 90 | 0.0 | 1.7 | 0.00 | 0.00 | 0.00 | 68 | |
| 20260903153231 | 68 | 132 | 0.9 | 3.5 | 0.00 | 0.00 | 0.00 | 69 | |
| 20260903153028 | 68 | 143 | 0.9 | 3.5 | 0.00 | 0.00 | 0.00 | 69 | |
| 20260903152734 | 68 | 130 | 1.7 | 2.6 | 0.00 | 0.00 | 0.00 | 69 | |
| 20260903152624 | 68 | 64 | 1.7 | 2.6 | 0.00 | 0.00 | 0.00 | 69 | |
| 20260903152422 | 68 | 130 | 1.7 | 2.6 | 0.00 | 0.00 | 0.00 | 69 | |
| 20260903152020 | 67 | 135 | 0.9 | 2.6 | 0.00 | 0.00 | 0.00 | 69 | |
| 20260903151818 | 67 | 151 | 0.9 | 2.6 | 0.00 | 0.00 | 0.00 | 69 | |
| 20260903151614 | 66 | 122 | 1.7 | 1.7 | 0.00 | 0.00 | 0.00 | 69 | |
| 20260903151412 | 66 | 150 | 0.9 | 1.7 | 0.00 | 0.00 | 0.00 | 70 | |
| 20260903151211 | 65 | 132 | 0.9 | 0.0 | 0.00 | 0.00 | 0.00 | 71 | |
| 20260903151010 | 65 | 106 | 0.0 | 0.0 | 0.00 | 0.00 | 0.00 | 72 | |
| 20260903150807 | 64 | 106 | 0.0 | 0.0 | 0.00 | 0.00 | 0.00 | 72 | |
| 20260903150605 | 64 | 106 | 0.0 | 0.0 | 0.00 | 0.00 | 0.00 | 73 | |
| 20260903150405 | 63 | 106 | 0.0 | 0.0 | 0.00 | 0.00 | 0.00 | 73 | |
| 20260903150001 | 63 | 106 | 0.0 | 0.0 | 0.00 | 0.00 | 0.00 | 75 | |
| 20260903145759 | 62 | 106 | 0.0 | 0.0 | 0.00 | 0.00 | 0.00 | 74 | |
| 20260903145557 | 62 | 106 | 0.0 | 0.0 | 0.00 | 0.00 | 0.00 | 75 | |
| 20260903145356 | 62 | 106 | 0.0 | 0.0 | 0.00 | 0.00 | 0.00 | 75 | |
| 20260903144950 | 62 | 106 | 0.0 | 0.0 | 0.00 | 0.00 | 0.00 | 75 | |
| 20260903144548 | 61 | 106 | 0.0 | 0.9 | 0.00 | 0.00 | 0.00 | 75 | |
| 20260903144346 | 61 | 106 | 0.0 | 0.9 | 0.00 | 0.00 | 0.00 | 75 | |
| 20260903144144 | 61 | 106 | 0.0 | 1.7 | 0.00 | 0.00 | 0.00 | 75 | |
| 20260903143942 | 60 | 106 | 0.0 | 1.7 | 0.00 | 0.00 | 0.00 | 76 | |
| 20260903143740 | 60 | 108 | 0.0 | 0.0 | 0.00 | 0.00 | 0.00 | 77 | |
| 20260903143538 | 60 | 71 | 0.0 | 0.0 | 0.00 | 0.00 | 0.00 | 77 | |
| 20260903142932 | 59 | 71 | 0.0 | 0.0 | 0.00 | 0.00 | 0.00 | 80 | |
| 20260903142731 | 59 | 71 | 0.0 | 0.0 | 0.00 | 0.00 | 0.00 | 80 | |
| 20260903142528 | 59 | 71 | 0.0 | 0.0 | 0.00 | 0.00 | 0.00 | 80 | |
| 20260903142325 | 58 | 71 | 0.0 | 0.0 | 0.00 | 0.00 | 0.00 | 81 | |
| 20260903142306 | 58 | 71 | 0.0 | 0.0 | 0.00 | 0.00 | 0.00 | 80 | |
| 20260903142124 | 58 | 71 | 0.0 | 0.0 | 0.00 | 0.00 | 0.00 | 80 | |
| 20260903141719 | 58 | 71 | 0.0 | 0.0 | 0.00 | 0.00 | 0.00 | 81 | |
| 20260903141315 | 58 | 71 | 0.0 | 0.0 | 0.00 | 0.00 | 0.00 | 82 | |
| 20260903141115 | 58 | 71 | 0.0 | 0.0 | 0.00 | 0.00 | 0.00 | 82 | |
| 20260903140709 | 58 | 71 | 0.0 | 0.0 | 0.00 | 0.00 | 0.00 | 82 | |
| 20260903140105 | 58 | 71 | 0.0 | 0.0 | 0.00 | 0.00 | 0.00 | 83 | |
| 20260903135904 | 58 | 71 | 0.0 | 0.0 | 0.00 | 0.00 | 0.00 | 83 | |
| 20260903135702 | 58 | 71 | 0.0 | 0.0 | 0.00 | 0.00 | 0.00 | 83 | |
| 20260903135500 | 58 | 71 | 0.0 | 0.0 | 0.00 | 0.00 | 0.00 | 83 | |
| 20260903135258 | 57 | 71 | 0.0 | 0.0 | 0.00 | 0.00 | 0.00 | 83 | |
| 20260903135054 | 57 | 71 | 0.0 | 0.0 | 0.00 | 0.00 | 0.00 | 82 | |
| 20260903134852 | 58 | 71 | 0.0 | 0.0 | 0.00 | 0.00 | 0.00 | 82 | |
| 20260903134248 | 58 | 71 | 0.0 | 0.0 | 0.00 | 0.00 | 0.00 | 82 | |
| 20260903134046 | 57 | 71 | 0.0 | 0.0 | 0.00 | 0.00 | 0.00 | 82 | |
| 20260903133843 | 58 | 71 | 0.0 | 0.0 | 0.00 | 0.00 | 0.00 | 82 | |
| 20260903133641 | 58 | 71 | 0.0 | 0.0 | 0.00 | 0.00 | 0.00 | 82 | |
| 20260903133441 | 58 | 71 | 0.0 | 0.0 | 0.00 | 0.00 | 0.00 | 82 | |
| 20260903133239 | 58 | 71 | 0.0 | 0.0 | 0.00 | 0.00 | 0.00 | 82 | |
| 20260903132633 | 58 | 71 | 0.0 | 0.0 | 0.00 | 0.00 | 0.00 | 81 | |
| 20260903132431 | 58 | 71 | 0.0 | 0.0 | 0.00 | 0.00 | 0.00 | 81 | |
| 20260903132230 | 58 | 71 | 0.0 | 0.0 | 0.00 | 0.00 | 0.00 | 81 | |
| 20260903132027 | 58 | 71 | 0.0 | 0.0 | 0.00 | 0.00 | 0.00 | 81 | |
| 20260903131824 | 58 | 71 | 0.0 | 0.0 | 0.00 | 0.00 | 0.00 | 81 | |
| 20260903131422 | 58 | 71 | 0.0 | 0.0 | 0.00 | 0.00 | 0.00 | 80 | |
| 20260903131218 | 58 | 71 | 0.0 | 0.0 | 0.00 | 0.00 | 0.00 | 80 | |
| 20260903131017 | 58 | 71 | 0.0 | 0.0 | 0.00 | 0.00 | 0.00 | 80 | |
| 20260903130612 | 58 | 71 | 0.0 | 0.0 | 0.00 | 0.00 | 0.00 | 80 | |
| 20260903130410 | 59 | 71 | 0.0 | 0.0 | 0.00 | 0.00 | 0.00 | 80 | |
| 20260903130211 | 59 | 71 | 0.0 | 0.0 | 0.00 | 0.00 | 0.00 | 80 | |
| 20260903130007 | 59 | 71 | 0.0 | 0.0 | 0.00 | 0.00 | 0.00 | 80 | |
| 20260903125806 | 59 | 71 | 0.0 | 0.0 | 0.00 | 0.00 | 0.00 | 80 | |
| 20260903125401 | 59 | 71 | 0.0 | 0.9 | 0.00 | 0.00 | 0.00 | 80 | |
| 20260903124959 | 59 | 71 | 0.0 | 2.6 | 0.00 | 0.00 | 0.00 | 80 | |
| 20260903124755 | 59 | 90 | 0.0 | 2.6 | 0.00 | 0.00 | 0.00 | 80 | |
| 20260903124555 | 59 | 78 | 0.0 | 2.6 | 0.00 | 0.00 | 0.00 | 80 | |
| 20260903124353 | 59 | 78 | 0.0 | 2.6 | 0.00 | 0.00 | 0.00 | 80 | |
| 20260903124151 | 59 | 78 | 0.0 | 2.6 | 0.00 | 0.00 | 0.00 | 80 | |
| 20260903123949 | 59 | 99 | 1.7 | 2.6 | 0.00 | 0.00 | 0.00 | 80 | |
| 20260903123746 | 59 | 106 | 1.7 | 2.6 | 0.00 | 0.00 | 0.00 | 80 | |
| 20260903123342 | 59 | 64 | 0.0 | 2.6 | 0.00 | 0.00 | 0.00 | 80 | |
| 20260903123142 | 59 | 64 | 0.0 | 3.5 | 0.00 | 0.00 | 0.00 | 80 | |
| 20260903122940 | 59 | 111 | 0.9 | 3.5 | 0.00 | 0.00 | 0.00 | 80 | |
| 20260903122738 | 59 | 112 | 2.6 | 3.5 | 0.00 | 0.00 | 0.00 | 80 | |
| 20260903122536 | 59 | 109 | 0.9 | 3.5 | 0.00 | 0.00 | 0.00 | 81 | |
| 20260903122332 | 59 | 122 | 0.9 | 3.5 | 0.00 | 0.00 | 0.00 | 81 | |
| 20260903121930 | 58 | 105 | 2.6 | 0.0 | 0.00 | 0.00 | 0.00 | 81 | |
| 20260903121727 | 58 | 52 | 0.0 | 1.7 | 0.00 | 0.00 | 0.00 | 81 | |
| 20260903121526 | 58 | 52 | 0.0 | 1.7 | 0.00 | 0.00 | 0.00 | 81 | |
| 20260903121325 | 58 | 52 | 0.0 | 1.7 | 0.00 | 0.00 | 0.00 | 81 | |
| 20260903121123 | 58 | 52 | 0.0 | 0.0 | 0.00 | 0.00 | 0.00 | 81 | |
| 20260903120921 | 58 | 63 | 0.0 | 0.0 | 0.00 | 0.00 | 0.00 | 81 | |
| 20260903120719 | 58 | 63 | 0.0 | 0.0 | 0.00 | 0.00 | 0.00 | 81 | |
| 20260903120517 | 58 | 63 | 0.0 | 0.0 | 0.00 | 0.00 | 0.00 | 81 | |
| 20260903120313 | 58 | 63 | 0.0 | 0.0 | 0.00 | 0.00 | 0.00 | 81 | |
| 20260903120114 | 58 | 63 | 0.0 | 0.0 | 0.00 | 0.00 | 0.00 | 81 | |
| 20260903115911 | 58 | 63 | 0.0 | 0.0 | 0.00 | 0.00 | 0.00 | 81 | |
| 20260903115709 | 58 | 63 | 0.0 | 0.0 | 0.00 | 0.00 | 0.00 | 80 | |
| 20260903115306 | 59 | 63 | 0.0 | 0.0 | 0.00 | 0.00 | 0.00 | 79 | |
| 20260903115102 | 59 | 63 | 0.0 | 0.0 | 0.00 | 0.00 | 0.00 | 79 | |
| 20260903114700 | 59 | 63 | 0.0 | 0.0 | 0.00 | 0.00 | 0.00 | 79 | |
| 20260903114458 | 59 | 63 | 0.0 | 0.0 | 0.00 | 0.00 | 0.00 | 79 | |
| 20260903114054 | 59 | 63 | 0.0 | 0.0 | 0.00 | 0.00 | 0.00 | 80 | |
| 20260903113853 | 59 | 63 | 0.0 | 0.0 | 0.00 | 0.00 | 0.00 | 80 | |
| 20260903113650 | 59 | 63 | 0.0 | 0.0 | 0.00 | 0.00 | 0.00 | 80 | |
| 20260903113448 | 59 | 63 | 0.0 | 0.0 | 0.00 | 0.00 | 0.00 | 80 | |
| 20260903113246 | 59 | 63 | 0.0 | 0.0 | 0.00 | 0.00 | 0.00 | 80 | |
| 20260903113045 | 59 | 63 | 0.0 | 0.0 | 0.00 | 0.00 | 0.00 | 80 | |
| 20260903112843 | 59 | 63 | 0.0 | 0.0 | 0.00 | 0.00 | 0.00 | 80 | |
| 20260903112437 | 59 | 63 | 0.0 | 0.0 | 0.00 | 0.00 | 0.00 | 79 | |
| 20260903112237 | 59 | 63 | 0.0 | 0.0 | 0.00 | 0.00 | 0.00 | 79 | |
| 20260903112033 | 59 | 63 | 0.0 | 0.0 | 0.00 | 0.00 | 0.00 | 78 | |
| 20260903111833 | 59 | 63 | 0.0 | 0.0 | 0.00 | 0.00 | 0.00 | 79 | |
| 20260903111630 | 59 | 63 | 0.0 | 0.0 | 0.00 | 0.00 | 0.00 | 78 | |
| 20260903111429 | 59 | 63 | 0.0 | 0.0 | 0.00 | 0.00 | 0.00 | 79 | |
| 20260903111227 | 59 | 63 | 0.0 | 0.0 | 0.00 | 0.00 | 0.00 | 79 | |
| 20260903111024 | 59 | 63 | 0.0 | 0.0 | 0.00 | 0.00 | 0.00 | 79 | |
| 20260903110823 | 59 | 63 | 0.0 | 0.0 | 0.00 | 0.00 | 0.00 | 79 | |
| 20260903110622 | 59 | 63 | 0.0 | 0.0 | 0.00 | 0.00 | 0.00 | 78 | |
| 20260903110418 | 59 | 63 | 0.0 | 0.0 | 0.00 | 0.00 | 0.00 | 79 | |
| 20260903110217 | 59 | 63 | 0.0 | 0.0 | 0.00 | 0.00 | 0.00 | 79 | |
| 20260903110014 | 59 | 63 | 0.0 | 0.0 | 0.00 | 0.00 | 0.00 | 79 | |
| 20260903105812 | 59 | 63 | 0.0 | 0.0 | 0.00 | 0.00 | 0.00 | 80 | |
| 20260903105610 | 59 | 63 | 0.0 | 0.0 | 0.00 | 0.00 | 0.00 | 80 | |
| 20260903105409 | 59 | 63 | 0.0 | 0.0 | 0.00 | 0.00 | 0.00 | 81 | |
| 20260903105005 | 58 | 63 | 0.0 | 0.0 | 0.00 | 0.00 | 0.00 | 81 | |
| 20260903104803 | 58 | 63 | 0.0 | 0.0 | 0.00 | 0.00 | 0.00 | 82 | |
| 20260903104601 | 58 | 63 | 0.0 | 0.0 | 0.00 | 0.00 | 0.00 | 81 | |
| 20260903104359 | 58 | 63 | 0.0 | 0.0 | 0.00 | 0.00 | 0.00 | 81 | |
| 20260903104159 | 58 | 63 | 0.0 | 2.6 | 0.00 | 0.00 | 0.00 | 81 | |
| 20260903103958 | 58 | 63 | 0.0 | 2.6 | 0.00 | 0.00 | 0.00 | 81 | |
| 20260903103755 | 58 | 63 | 0.0 | 2.6 | 0.00 | 0.00 | 0.00 | 81 | |
| 20260903103553 | 58 | 109 | 0.9 | 0.0 | 0.00 | 0.00 | 0.00 | 81 | |
| 20260903103351 | 58 | 78 | 0.0 | 0.0 | 0.00 | 0.00 | 0.00 | 82 | |
| 20260903103150 | 58 | 78 | 0.0 | 0.0 | 0.00 | 0.00 | 0.00 | 82 | |
| 20260903102948 | 58 | 78 | 0.0 | 0.0 | 0.00 | 0.00 | 0.00 | 82 | |
| 20260903102745 | 58 | 78 | 0.0 | 0.0 | 0.00 | 0.00 | 0.00 | 82 | |
| 20260903102543 | 58 | 78 | 0.0 | 0.0 | 0.00 | 0.00 | 0.00 | 82 | |
| 20260903102140 | 58 | 78 | 0.0 | 0.0 | 0.00 | 0.00 | 0.00 | 82 | |
| 20260903101736 | 58 | 78 | 0.0 | 0.0 | 0.00 | 0.00 | 0.00 | 82 | |
| 20260903101534 | 58 | 78 | 0.0 | 0.0 | 0.00 | 0.00 | 0.00 | 82 | |
| 20260903101332 | 58 | 78 | 0.0 | 0.0 | 0.00 | 0.00 | 0.00 | 81 | |
| 20260903101130 | 58 | 78 | 0.0 | 0.0 | 0.00 | 0.00 | 0.00 | 81 | |
| 20260903100928 | 59 | 78 | 0.0 | 0.0 | 0.00 | 0.00 | 0.00 | 81 | |
| 20260903100727 | 59 | 78 | 0.0 | 0.0 | 0.00 | 0.00 | 0.00 | 81 | |
| 20260903100526 | 59 | 78 | 0.0 | 0.0 | 0.00 | 0.00 | 0.00 | 81 | |
| 20260903100121 | 59 | 78 | 0.0 | 0.0 | 0.00 | 0.00 | 0.00 | 81 | |
| 20260903095917 | 59 | 78 | 0.0 | 0.0 | 0.00 | 0.00 | 0.00 | 81 | |
| 20260903095717 | 59 | 78 | 0.0 | 0.9 | 0.00 | 0.00 | 0.00 | 81 | |
| 20260903095513 | 59 | 78 | 0.0 | 0.9 | 0.00 | 0.00 | 0.00 | 81 | |
| 20260903095314 | 59 | 78 | 0.0 | 0.9 | 0.00 | 0.00 | 0.00 | 80 | |
| 20260903095112 | 59 | 112 | 0.0 | 0.0 | 0.00 | 0.00 | 0.00 | 80 | |
| 20260903094908 | 59 | 275 | 0.0 | 0.0 | 0.00 | 0.00 | 0.00 | 81 | |
| 20260903094707 | 59 | 275 | 0.0 | 0.0 | 0.00 | 0.00 | 0.00 | 81 | |
| 20260903094504 | 59 | 275 | 0.0 | 0.0 | 0.00 | 0.00 | 0.00 | 81 | |
| 20260903094302 | 59 | 275 | 0.0 | 0.0 | 0.00 | 0.00 | 0.00 | 81 | |
| 20260903094102 | 59 | 275 | 0.0 | 0.0 | 0.00 | 0.00 | 0.00 | 81 | |
| 20260903093858 | 59 | 275 | 0.0 | 0.0 | 0.00 | 0.00 | 0.00 | 81 | |
| 20260903093657 | 59 | 275 | 0.0 | 0.0 | 0.00 | 0.00 | 0.00 | 81 | |
| 20260903093252 | 59 | 275 | 0.0 | 0.0 | 0.00 | 0.00 | 0.00 | 81 | |
| 20260903092849 | 59 | 275 | 0.0 | 0.0 | 0.00 | 0.00 | 0.00 | 81 | |
| 20260903092647 | 59 | 275 | 0.0 | 0.0 | 0.00 | 0.00 | 0.00 | 80 | |
| 20260903092445 | 59 | 275 | 0.0 | 0.0 | 0.00 | 0.00 | 0.00 | 80 | |
| 20260903092244 | 59 | 275 | 0.0 | 0.0 | 0.00 | 0.00 | 0.00 | 80 | |
| 20260903092041 | 59 | 275 | 0.0 | 0.0 | 0.00 | 0.00 | 0.00 | 80 | |
| 20260903091841 | 59 | 275 | 0.0 | 0.0 | 0.00 | 0.00 | 0.00 | 80 | |
| 20260903091637 | 59 | 275 | 0.0 | 0.0 | 0.00 | 0.00 | 0.00 | 79 | |
| 20260903091437 | 59 | 275 | 0.0 | 0.0 | 0.00 | 0.00 | 0.00 | 79 | |
| 20260903091233 | 59 | 275 | 0.0 | 0.0 | 0.00 | 0.00 | 0.00 | 80 | |
| 20260903091031 | 59 | 275 | 0.0 | 0.0 | 0.00 | 0.00 | 0.00 | 80 | |
| 20260903090830 | 60 | 275 | 0.0 | 0.0 | 0.00 | 0.00 | 0.00 | 81 | |
| 20260903090629 | 60 | 275 | 0.0 | 0.0 | 0.00 | 0.00 | 0.00 | 81 | |
| 20260903090427 | 60 | 275 | 0.0 | 0.0 | 0.00 | 0.00 | 0.00 | 82 | |
| 20260903090224 | 60 | 275 | 0.0 | 0.0 | 0.00 | 0.00 | 0.00 | 82 | |
| 20260903090024 | 60 | 275 | 0.0 | 0.0 | 0.00 | 0.00 | 0.00 | 82 | |
| 20260903085820 | 60 | 275 | 0.0 | 0.0 | 0.00 | 0.00 | 0.00 | 82 | |
| 20260903085620 | 60 | 275 | 0.0 | 0.0 | 0.00 | 0.00 | 0.00 | 82 | |
| 20260903085416 | 60 | 275 | 0.0 | 0.0 | 0.00 | 0.00 | 0.00 | 82 | |
| 20260903085214 | 59 | 275 | 0.0 | 0.0 | 0.00 | 0.00 | 0.00 | 81 | |
| 20260903085012 | 59 | 275 | 0.0 | 0.0 | 0.00 | 0.00 | 0.00 | 81 | |
| 20260903084812 | 59 | 275 | 0.0 | 0.0 | 0.00 | 0.00 | 0.00 | 81 | |
| 20260903084611 | 59 | 275 | 0.0 | 0.0 | 0.00 | 0.00 | 0.00 | 80 | |
| 20260903084205 | 59 | 275 | 0.0 | 0.0 | 0.00 | 0.00 | 0.00 | 80 | |
| 20260903083801 | 59 | 275 | 0.0 | 0.0 | 0.00 | 0.00 | 0.00 | 79 | |
| 20260903083559 | 59 | 275 | 0.0 | 0.0 | 0.00 | 0.00 | 0.00 | 79 | |
| 20260903083155 | 59 | 275 | 0.0 | 0.0 | 0.00 | 0.00 | 0.00 | 79 | |
| 20260903082953 | 59 | 275 | 0.0 | 0.0 | 0.00 | 0.00 | 0.00 | 79 | |
| 20260903082751 | 59 | 275 | 0.0 | 0.0 | 0.00 | 0.00 | 0.00 | 80 | |
| 20260903082551 | 59 | 275 | 0.0 | 0.0 | 0.00 | 0.00 | 0.00 | 80 | |
| 20260903082349 | 59 | 275 | 0.0 | 0.0 | 0.00 | 0.00 | 0.00 | 81 | |
| 20260903082146 | 59 | 275 | 0.0 | 0.0 | 0.00 | 0.00 | 0.00 | 81 | |
| 20260903081945 | 60 | 275 | 0.0 | 0.0 | 0.00 | 0.00 | 0.00 | 82 | |
| 20260903081744 | 60 | 275 | 0.0 | 0.0 | 0.00 | 0.00 | 0.00 | 82 | |
| 20260903081540 | 60 | 275 | 0.0 | 0.0 | 0.00 | 0.00 | 0.00 | 83 | |
| 20260903081338 | 60 | 275 | 0.0 | 0.0 | 0.00 | 0.00 | 0.00 | 83 | |
| 20260903081138 | 60 | 275 | 0.0 | 0.0 | 0.00 | 0.00 | 0.00 | 83 | |
| 20260903080936 | 60 | 275 | 0.0 | 0.0 | 0.00 | 0.00 | 0.00 | 83 | |
| 20260903080732 | 60 | 275 | 0.0 | 0.0 | 0.00 | 0.00 | 0.00 | 83 | |
| 20260903080532 | 61 | 275 | 0.0 | 0.0 | 0.00 | 0.00 | 0.00 | 84 | |
| 20260903080329 | 61 | 275 | 0.0 | 0.0 | 0.00 | 0.00 | 0.00 | 84 | |
| 20260903080127 | 61 | 275 | 0.0 | 0.0 | 0.00 | 0.00 | 0.00 | 84 | |
| 20260903075928 | 61 | 275 | 0.0 | 0.0 | 0.00 | 0.00 | 0.00 | 84 | |
| 20260903075723 | 61 | 275 | 0.0 | 0.0 | 0.00 | 0.00 | 0.00 | 84 | |
| 20260903075521 | 61 | 275 | 0.0 | 0.0 | 0.00 | 0.00 | 0.00 | 85 | |
| 20260903075319 | 61 | 275 | 0.0 | 0.0 | 0.00 | 0.00 | 0.00 | 85 | |
| 20260903075117 | 61 | 275 | 0.0 | 0.0 | 0.00 | 0.00 | 0.00 | 84 | |
| 20260903074917 | 61 | 275 | 0.0 | 0.0 | 0.00 | 0.00 | 0.00 | 84 | |
| 20260903074713 | 60 | 275 | 0.0 | 0.0 | 0.00 | 0.00 | 0.00 | 84 | |
| 20260903074511 | 60 | 275 | 0.0 | 0.0 | 0.00 | 0.00 | 0.00 | 83 | |
| 20260903074110 | 60 | 275 | 0.0 | 0.0 | 0.00 | 0.00 | 0.00 | 82 | |
| 20260903073906 | 61 | 275 | 0.0 | 0.0 | 0.00 | 0.00 | 0.00 | 82 | |
| 20260903073704 | 61 | 275 | 0.0 | 0.0 | 0.00 | 0.00 | 0.00 | 82 | |
| 20260903073502 | 61 | 275 | 0.0 | 0.0 | 0.00 | 0.00 | 0.00 | 82 | |
| 20260903073302 | 61 | 275 | 0.0 | 0.0 | 0.00 | 0.00 | 0.00 | 83 | |
| 20260903073100 | 61 | 275 | 0.0 | 0.0 | 0.00 | 0.00 | 0.00 | 83 | |
| 20260903072858 | 61 | 275 | 0.0 | 0.0 | 0.00 | 0.00 | 0.00 | 83 | |
| 20260903072656 | 61 | 275 | 0.0 | 0.0 | 0.00 | 0.00 | 0.00 | 82 | |
| 20260903072454 | 61 | 275 | 0.0 | 0.0 | 0.00 | 0.00 | 0.00 | 82 | |
| 20260903072252 | 61 | 275 | 0.0 | 0.0 | 0.00 | 0.00 | 0.00 | 82 | |
| 20260903072050 | 61 | 275 | 0.0 | 0.0 | 0.00 | 0.00 | 0.00 | 82 | |
| 20260903071847 | 61 | 275 | 0.0 | 0.0 | 0.00 | 0.00 | 0.00 | 81 | |
| 20260903071444 | 61 | 275 | 0.0 | 0.0 | 0.00 | 0.00 | 0.00 | 81 | |
| 20260903071243 | 61 | 275 | 0.0 | 0.0 | 0.00 | 0.00 | 0.00 | 80 | |
| 20260903071039 | 61 | 275 | 0.0 | 0.0 | 0.00 | 0.00 | 0.00 | 80 | |
| 20260903070839 | 61 | 275 | 0.0 | 0.0 | 0.00 | 0.00 | 0.00 | 80 | |
| 20260903070637 | 61 | 275 | 0.0 | 0.0 | 0.00 | 0.00 | 0.00 | 80 | |
| 20260903070435 | 61 | 275 | 0.0 | 0.0 | 0.00 | 0.00 | 0.00 | 80 | |
| 20260903070233 | 61 | 275 | 0.0 | 0.0 | 0.00 | 0.00 | 0.00 | 79 | |
| 20260903070031 | 61 | 275 | 0.0 | 0.0 | 0.00 | 0.00 | 0.00 | 79 | |
| 20260903065829 | 61 | 275 | 0.0 | 0.0 | 0.00 | 0.00 | 0.00 | 79 | |
| 20260903065626 | 61 | 275 | 0.0 | 0.0 | 0.00 | 0.00 | 0.00 | 79 | |
| 20260903065224 | 61 | 275 | 0.0 | 0.0 | 0.00 | 0.00 | 0.00 | 79 | |
| 20260903065020 | 62 | 275 | 0.0 | 0.0 | 0.00 | 0.00 | 0.00 | 79 | |
| 20260903064818 | 62 | 275 | 0.0 | 0.0 | 0.00 | 0.00 | 0.00 | 79 | |
| 20260903064616 | 62 | 275 | 0.0 | 0.0 | 0.00 | 0.00 | 0.00 | 79 | |
| 20260903064414 | 62 | 275 | 0.0 | 0.0 | 0.00 | 0.00 | 0.00 | 80 | |
| 20260903064212 | 62 | 275 | 0.0 | 0.0 | 0.00 | 0.00 | 0.00 | 80 | |
| 20260903063809 | 62 | 275 | 0.0 | 0.0 | 0.00 | 0.00 | 0.00 | 80 | |
| 20260903063607 | 62 | 275 | 0.0 | 0.0 | 0.00 | 0.00 | 0.00 | 81 | |
| 20260903063405 | 62 | 275 | 0.0 | 0.0 | 0.00 | 0.00 | 0.00 | 82 | |
| 20260903063203 | 62 | 275 | 0.0 | 0.0 | 0.00 | 0.00 | 0.00 | 82 | |
| 20260903063001 | 62 | 275 | 0.0 | 0.0 | 0.00 | 0.00 | 0.00 | 82 | |
| 20260903062759 | 62 | 275 | 0.0 | 0.0 | 0.00 | 0.00 | 0.00 | 81 | |
| 20260903062557 | 63 | 275 | 0.0 | 0.0 | 0.00 | 0.00 | 0.00 | 81 | |
| 20260903062355 | 63 | 275 | 0.0 | 0.0 | 0.00 | 0.00 | 0.00 | 82 | |
| 20260903062156 | 63 | 275 | 0.0 | 0.0 | 0.00 | 0.00 | 0.00 | 82 | |
| 20260903061951 | 63 | 275 | 0.0 | 0.0 | 0.00 | 0.00 | 0.00 | 82 | |
| 20260903061749 | 63 | 275 | 0.0 | 0.0 | 0.00 | 0.00 | 0.00 | 81 | |
| 20260903061548 | 63 | 275 | 0.0 | 0.0 | 0.00 | 0.00 | 0.00 | 81 | |
| 20260903061346 | 63 | 275 | 0.0 | 0.0 | 0.00 | 0.00 | 0.00 | 81 | |
| 20260903061144 | 63 | 275 | 0.0 | 0.0 | 0.00 | 0.00 | 0.00 | 81 | |
| 20260903060942 | 63 | 275 | 0.0 | 0.0 | 0.00 | 0.00 | 0.00 | 81 | |
| 20260903060740 | 63 | 275 | 0.0 | 0.0 | 0.00 | 0.00 | 0.00 | 81 | |
| 20260903060538 | 63 | 275 | 0.0 | 0.0 | 0.00 | 0.00 | 0.00 | 81 | |
| 20260903060336 | 63 | 275 | 0.0 | 0.0 | 0.00 | 0.00 | 0.00 | 80 | |
| 20260903060134 | 63 | 275 | 0.0 | 0.0 | 0.00 | 0.00 | 0.00 | 80 | |
| 20260903055932 | 63 | 275 | 0.0 | 0.0 | 0.00 | 0.00 | 0.00 | 80 | |
| 20260903055529 | 63 | 275 | 0.0 | 0.0 | 0.00 | 0.00 | 0.00 | 79 | |
| 20260903055327 | 63 | 275 | 0.0 | 0.0 | 0.00 | 0.00 | 0.00 | 79 | |
| 20260903055125 | 63 | 275 | 0.0 | 0.0 | 0.00 | 0.00 | 0.00 | 79 | |
| 20260903054923 | 63 | 275 | 0.0 | 0.0 | 0.00 | 0.00 | 0.00 | 79 | |
| 20260903054721 | 63 | 275 | 0.0 | 0.0 | 0.00 | 0.00 | 0.00 | 79 | |
| 20260903054519 | 63 | 275 | 0.0 | 0.0 | 0.00 | 0.00 | 0.00 | 79 | |
| 20260903054317 | 63 | 275 | 0.0 | 0.0 | 0.00 | 0.00 | 0.00 | 78 | |
| 20260903054115 | 63 | 275 | 0.0 | 0.0 | 0.00 | 0.00 | 0.00 | 78 | |
| 20260903053913 | 63 | 275 | 0.0 | 0.0 | 0.00 | 0.00 | 0.00 | 78 | |
| 20260903053711 | 63 | 275 | 0.0 | 0.0 | 0.00 | 0.00 | 0.00 | 78 | |
| 20260903053509 | 63 | 275 | 0.0 | 0.0 | 0.00 | 0.00 | 0.00 | 79 | |
| 20260903053308 | 63 | 275 | 0.0 | 0.0 | 0.00 | 0.00 | 0.00 | 79 | |
| 20260903053106 | 64 | 275 | 0.0 | 0.0 | 0.00 | 0.00 | 0.00 | 78 | |
| 20260903052904 | 64 | 275 | 0.0 | 0.0 | 0.00 | 0.00 | 0.00 | 79 | |
| 20260903052702 | 64 | 275 | 0.0 | 0.0 | 0.00 | 0.00 | 0.00 | 79 | |
| 20260903052500 | 64 | 275 | 0.0 | 0.0 | 0.00 | 0.00 | 0.00 | 79 | |
| 20260903052258 | 64 | 275 | 0.0 | 0.0 | 0.00 | 0.00 | 0.00 | 79 | |
| 20260903052056 | 64 | 275 | 0.0 | 0.0 | 0.00 | 0.00 | 0.00 | 80 | |
| 20260903051854 | 64 | 275 | 0.0 | 0.0 | 0.00 | 0.00 | 0.00 | 80 | |
| 20260903051450 | 64 | 275 | 0.0 | 0.0 | 0.00 | 0.00 | 0.00 | 79 | |
| 20260903051249 | 65 | 275 | 0.0 | 0.0 | 0.00 | 0.00 | 0.00 | 79 | |
| 20260903051047 | 65 | 275 | 0.0 | 0.0 | 0.00 | 0.00 | 0.00 | 78 | |
| 20260903050845 | 65 | 275 | 0.0 | 0.0 | 0.00 | 0.00 | 0.00 | 78 | |
| 20260903050643 | 65 | 275 | 0.0 | 0.0 | 0.00 | 0.00 | 0.00 | 78 | |
| 20260903050441 | 65 | 275 | 0.0 | 0.0 | 0.00 | 0.00 | 0.00 | 78 | |
| 20260903050239 | 65 | 275 | 0.0 | 0.0 | 0.00 | 0.00 | 0.00 | 78 | |
| 20260903050037 | 65 | 275 | 0.0 | 0.0 | 0.00 | 0.00 | 0.00 | 77 | |
| 20260903045633 | 65 | 275 | 0.0 | 0.0 | 0.00 | 0.00 | 0.00 | 77 | |
| 20260903045433 | 65 | 275 | 0.0 | 0.0 | 0.00 | 0.00 | 0.00 | 77 | |
| 20260903045229 | 65 | 275 | 0.0 | 0.0 | 0.00 | 0.00 | 0.00 | 76 | |
| 20260903045028 | 65 | 275 | 0.0 | 0.0 | 0.00 | 0.00 | 0.00 | 76 | |
| 20260903044826 | 65 | 275 | 0.0 | 0.0 | 0.00 | 0.00 | 0.00 | 75 | |
| 20260903044624 | 65 | 275 | 0.0 | 0.0 | 0.00 | 0.00 | 0.00 | 75 | |
| 20260903044424 | 65 | 275 | 0.0 | 0.0 | 0.00 | 0.00 | 0.00 | 74 | |
| 20260903044220 | 65 | 275 | 0.0 | 0.0 | 0.00 | 0.00 | 0.00 | 74 | |
| 20260903044018 | 66 | 275 | 0.0 | 0.0 | 0.00 | 0.00 | 0.00 | 74 | |
| 20260903043816 | 66 | 275 | 0.0 | 0.0 | 0.00 | 0.00 | 0.00 | 74 | |
| 20260903043614 | 66 | 275 | 0.0 | 0.0 | 0.00 | 0.00 | 0.00 | 74 | |
| 20260903043412 | 66 | 275 | 0.0 | 0.0 | 0.00 | 0.00 | 0.00 | 73 | |
| 20260903043210 | 66 | 275 | 0.0 | 0.0 | 0.00 | 0.00 | 0.00 | 73 | |
| 20260903043008 | 66 | 275 | 0.0 | 0.0 | 0.00 | 0.00 | 0.00 | 74 | |
| 20260903042605 | 66 | 275 | 0.0 | 0.0 | 0.00 | 0.00 | 0.00 | 75 | |
| 20260903042403 | 66 | 275 | 0.0 | 0.0 | 0.00 | 0.00 | 0.00 | 75 | |
| 20260903041959 | 67 | 275 | 0.0 | 0.0 | 0.00 | 0.00 | 0.00 | 75 | |
| 20260903041757 | 67 | 275 | 0.0 | 0.0 | 0.00 | 0.00 | 0.00 | 74 | |
| 20260903041556 | 67 | 275 | 0.0 | 0.0 | 0.00 | 0.00 | 0.00 | 74 | |
| 20260903041353 | 67 | 275 | 0.0 | 0.0 | 0.00 | 0.00 | 0.00 | 74 | |
| 20260903041151 | 67 | 275 | 0.0 | 2.6 | 0.00 | 0.00 | 0.00 | 74 | |
| 20260903040949 | 67 | 275 | 0.0 | 2.6 | 0.00 | 0.00 | 0.00 | 74 |